| time (UTC) | temp F | wind direction | speed knots | gust knots | rain 1hr in | rain 24hr in | rain mn in | humidity % | barometer mb |
| 20260506201407 | 71 | 124 | 2.6 | 5.2 | 0.00 | 0.00 | 0.00 | 60 | 1017.0 |
| 20260506200908 | 71 | 112 | 0.9 | 4.3 | 0.00 | 0.00 | 0.00 | 60 | 1017.0 |
| 20260506200407 | 71 | 115 | 2.6 | 4.3 | 0.00 | 0.00 | 0.00 | 59 | 1017.0 |
| 20260506195907 | 71 | 106 | 1.7 | 4.3 | 0.00 | 0.00 | 0.00 | 61 | 1017.0 |
| 20260506195407 | 71 | 101 | 1.7 | 3.5 | 0.00 | 0.00 | 0.00 | 61 | 1017.0 |
| 20260506194909 | 71 | 72 | 0.0 | 3.5 | 0.00 | 0.00 | 0.00 | 59 | 1017.0 |
| 20260506194407 | 71 | 123 | 0.9 | 3.5 | 0.00 | 0.00 | 0.00 | 60 | 1017.0 |
| 20260506193907 | 71 | 105 | 0.0 | 3.5 | 0.00 | 0.00 | 0.00 | 60 | 1017.0 |
| 20260506193408 | 71 | 155 | 2.6 | 3.5 | 0.00 | 0.00 | 0.00 | 59 | 1017.0 |
| 20260506192907 | 71 | 153 | 2.6 | 3.5 | 0.00 | 0.00 | 0.00 | 59 | 1017.0 |
| 20260506192407 | 70 | 124 | 1.7 | 3.5 | 0.00 | 0.00 | 0.00 | 60 | 1017.0 |
| 20260506191907 | 70 | 66 | 2.6 | 3.5 | 0.00 | 0.00 | 0.00 | 62 | 1017.0 |
| 20260506191407 | 70 | 121 | 0.9 | 3.5 | 0.00 | 0.00 | 0.00 | 60 | 1017.0 |
| 20260506190909 | 68 | 96 | 1.7 | 2.6 | 0.00 | 0.00 | 0.00 | 63 | 1017.0 |
| 20260506190407 | 69 | 99 | 2.6 | 3.5 | 0.00 | 0.00 | 0.00 | 61 | 1017.0 |
| 20260506185907 | 69 | 130 | 0.0 | 2.6 | 0.00 | 0.00 | 0.00 | 61 | 1017.0 |
| 20260506185407 | 69 | 96 | 1.7 | 3.5 | 0.00 | 0.00 | 0.00 | 63 | 1017.0 |
| 20260506184908 | 68 | 152 | 2.6 | 3.5 | 0.00 | 0.00 | 0.00 | 62 | 1017.0 |
| 20260506184407 | 68 | 162 | 2.6 | 3.5 | 0.00 | 0.00 | 0.00 | 64 | 1017.0 |
| 20260506183907 | 67 | 25 | 0.0 | 2.6 | 0.00 | 0.00 | 0.00 | 66 | 1018.0 |
| 20260506183410 | 66 | 128 | 2.6 | 4.3 | 0.00 | 0.00 | 0.00 | 66 | 1017.0 |
| 20260506182908 | 67 | 130 | 3.5 | 5.2 | 0.00 | 0.00 | 0.00 | 64 | 1017.0 |
| 20260506182407 | 67 | 84 | 0.9 | 3.5 | 0.00 | 0.00 | 0.00 | 65 | 1018.0 |
| 20260506181907 | 67 | 124 | 2.6 | 3.5 | 0.00 | 0.00 | 0.00 | 64 | 1017.0 |
| 20260506181408 | 67 | 126 | 0.0 | 3.5 | 0.00 | 0.00 | 0.00 | 64 | 1017.0 |
| 20260506180908 | 67 | 63 | 1.7 | 4.3 | 0.00 | 0.00 | 0.00 | 64 | 1018.0 |
| 20260506180408 | 67 | 104 | 2.6 | 3.5 | 0.00 | 0.00 | 0.00 | 65 | 1017.0 |
| 20260506175907 | 66 | 121 | 1.7 | 3.5 | 0.00 | 0.00 | 0.00 | 66 | 1017.0 |
| 20260506175407 | 65 | 110 | 2.6 | 3.5 | 0.00 | 0.00 | 0.00 | 66 | 1018.0 |
| 20260506174907 | 66 | 175 | 2.6 | 4.3 | 0.00 | 0.00 | 0.00 | 66 | 1017.0 |
| 20260506174408 | 66 | 150 | 0.0 | 4.3 | 0.00 | 0.00 | 0.00 | 67 | 1017.0 |
| 20260506173907 | 66 | 135 | 0.0 | 2.6 | 0.00 | 0.00 | 0.00 | 66 | 1018.0 |
| 20260506173407 | 66 | 126 | 3.5 | 4.3 | 0.00 | 0.00 | 0.00 | 65 | 1018.0 |
| 20260506172907 | 65 | 67 | 0.0 | 3.5 | 0.00 | 0.00 | 0.00 | 68 | 1018.0 |
| 20260506172408 | 64 | 115 | 0.9 | 2.6 | 0.00 | 0.00 | 0.00 | 67 | 1018.0 |
| 20260506171909 | 64 | 94 | 1.7 | 3.5 | 0.00 | 0.00 | 0.00 | 69 | 1018.0 |
| 20260506171408 | 64 | 123 | 0.9 | 3.5 | 0.00 | 0.00 | 0.00 | 69 | 1018.0 |
| 20260506170907 | 65 | 145 | 2.6 | 3.5 | 0.00 | 0.00 | 0.00 | 67 | 1018.0 |
| 20260506170407 | 64 | 108 | 0.9 | 3.5 | 0.00 | 0.00 | 0.00 | 67 | 1018.0 |
| 20260506165908 | 64 | 144 | 1.7 | 3.5 | 0.00 | 0.00 | 0.00 | 68 | 1018.0 |
| 20260506165407 | 63 | 153 | 1.7 | 2.6 | 0.00 | 0.00 | 0.00 | 69 | 1017.0 |
| 20260506164908 | 64 | 80 | 1.7 | 3.5 | 0.00 | 0.00 | 0.00 | 68 | 1018.0 |
| 20260506164407 | 64 | 161 | 1.7 | 2.6 | 0.00 | 0.00 | 0.00 | 69 | 1018.0 |
| 20260506163907 | 64 | 98 | 0.0 | 3.5 | 0.00 | 0.00 | 0.00 | 70 | 1018.0 |
| 20260506163407 | 63 | 81 | 0.0 | 4.3 | 0.00 | 0.00 | 0.00 | 71 | 1017.0 |
| 20260506162908 | 62 | 105 | 2.6 | 4.3 | 0.00 | 0.00 | 0.00 | 71 | 1018.0 |
| 20260506162407 | 63 | 146 | 1.7 | 3.5 | 0.00 | 0.00 | 0.00 | 70 | 1018.0 |
| 20260506161908 | 62 | 89 | 0.0 | 2.6 | 0.00 | 0.00 | 0.00 | 73 | 1018.0 |
| 20260506161407 | 62 | 95 | 0.9 | 3.5 | 0.00 | 0.00 | 0.00 | 74 | 1018.0 |
| 20260506160907 | 61 | 110 | 0.9 | 3.5 | 0.00 | 0.00 | 0.00 | 76 | 1018.0 |
| 20260506160408 | 61 | 73 | 4.3 | 4.3 | 0.00 | 0.00 | 0.00 | 76 | 1018.0 |
| 20260506155910 | 60 | 85 | 1.7 | 2.6 | 0.00 | 0.00 | 0.00 | 79 | 1018.0 |
| 20260506155408 | 59 | 121 | 0.9 | 3.5 | 0.00 | 0.00 | 0.00 | 80 | 1018.0 |
| 20260506154908 | 59 | 85 | 2.6 | 3.5 | 0.00 | 0.00 | 0.00 | 80 | 1018.0 |
| 20260506154407 | 59 | 107 | 1.7 | 2.6 | 0.00 | 0.00 | 0.00 | 80 | 1018.0 |
| 20260506153908 | 59 | 91 | 2.6 | 3.5 | 0.00 | 0.00 | 0.00 | 79 | 1018.0 |
| 20260506153407 | 60 | 101 | 2.6 | 3.5 | 0.00 | 0.00 | 0.00 | 79 | 1018.0 |
| 20260506152908 | 60 | 99 | 2.6 | 2.6 | 0.00 | 0.00 | 0.00 | 80 | 1018.0 |
| 20260506152408 | 60 | 73 | 1.7 | 4.3 | 0.00 | 0.00 | 0.00 | 78 | 1018.0 |
| 20260506151907 | 59 | 101 | 1.7 | 3.5 | 0.00 | 0.00 | 0.00 | 80 | 1018.0 |
| 20260506151408 | 59 | 78 | 2.6 | 4.3 | 0.00 | 0.00 | 0.00 | 79 | 1018.0 |
| 20260506150909 | 59 | 84 | 1.7 | 3.5 | 0.00 | 0.00 | 0.00 | 79 | 1017.0 |
| 20260506150411 | 59 | 93 | 1.7 | 2.6 | 0.00 | 0.00 | 0.00 | 80 | 1017.0 |
| 20260506145907 | 58 | 85 | 0.9 | 1.7 | 0.00 | 0.00 | 0.00 | 82 | 1018.0 |
| 20260506145407 | 58 | 320 | 0.0 | 1.7 | 0.00 | 0.00 | 0.00 | 81 | 1017.0 |
| 20260506144907 | 57 | 30 | 0.0 | 2.6 | 0.00 | 0.00 | 0.00 | 82 | 1017.0 |
| 20260506144410 | 57 | 71 | 0.9 | 1.7 | 0.00 | 0.00 | 0.00 | 82 | 1018.0 |
| 20260506143907 | 57 | 141 | 0.9 | 1.7 | 0.00 | 0.00 | 0.00 | 83 | 1017.0 |
| 20260506143408 | 57 | 85 | 0.9 | 1.7 | 0.00 | 0.00 | 0.00 | 84 | 1017.0 |
| 20260506142909 | 57 | 71 | 0.0 | 1.7 | 0.00 | 0.00 | 0.00 | 83 | 1017.0 |
| 20260506142407 | 56 | 60 | 0.9 | 1.7 | 0.00 | 0.00 | 0.00 | 83 | 1017.0 |
| 20260506141908 | 56 | 101 | 0.9 | 1.7 | 0.00 | 0.00 | 0.00 | 84 | 1017.0 |
| 20260506141408 | 56 | 120 | 0.0 | 1.7 | 0.00 | 0.00 | 0.00 | 84 | 1017.0 |
| 20260506140909 | 56 | 66 | 0.0 | 2.6 | 0.00 | 0.00 | 0.00 | 84 | 1017.0 |
| 20260506140408 | 56 | 117 | 0.0 | 0.9 | 0.00 | 0.00 | 0.00 | 85 | 1017.0 |
| 20260506135908 | 56 | 130 | 0.0 | 1.7 | 0.00 | 0.00 | 0.00 | 85 | 1017.0 |
| 20260506135407 | 56 | 137 | 0.0 | 0.9 | 0.00 | 0.00 | 0.00 | 85 | 1017.0 |
| 20260506134908 | 56 | 55 | 0.0 | 0.9 | 0.00 | 0.00 | 0.00 | 84 | 1017.0 |
| 20260506134407 | 56 | 100 | 0.0 | 0.9 | 0.00 | 0.00 | 0.00 | 84 | 1017.0 |
| 20260506133907 | 56 | 99 | 0.0 | 1.7 | 0.00 | 0.00 | 0.00 | 84 | 1017.0 |
| 20260506133408 | 56 | 177 | 0.9 | 1.7 | 0.00 | 0.00 | 0.00 | 84 | 1017.0 |
| 20260506132908 | 56 | 119 | 0.9 | 1.7 | 0.00 | 0.00 | 0.00 | 84 | 1017.0 |
| 20260506132409 | 56 | 204 | 0.0 | 1.7 | 0.00 | 0.00 | 0.00 | 84 | 1017.0 |
| 20260506131908 | 56 | 151 | 0.0 | 1.7 | 0.00 | 0.00 | 0.00 | 83 | 1017.0 |
| 20260506131407 | 56 | 158 | 0.0 | 1.7 | 0.00 | 0.00 | 0.00 | 83 | 1017.0 |
| 20260506130907 | 56 | 76 | 0.0 | 0.0 | 0.00 | 0.00 | 0.00 | 83 | 1017.0 |
| 20260506130407 | 56 | 224 | 0.0 | 0.9 | 0.00 | 0.00 | 0.00 | 83 | 1017.0 |
| 20260506125907 | 56 | 211 | 0.9 | 2.6 | 0.00 | 0.00 | 0.00 | 82 | 1017.0 |
| 20260506125408 | 56 | 198 | 1.7 | 1.7 | 0.00 | 0.00 | 0.00 | 82 | 1016.0 |
| 20260506124907 | 56 | 111 | 0.0 | 1.7 | 0.00 | 0.00 | 0.00 | 82 | 1017.0 |
| 20260506124407 | 56 | 135 | 0.0 | 1.7 | 0.00 | 0.00 | 0.00 | 82 | 1017.0 |
| 20260506123908 | 56 | 191 | 0.0 | 0.9 | 0.00 | 0.00 | 0.00 | 81 | 1016.0 |
| 20260506123411 | 56 | 234 | 0.0 | 1.7 | 0.00 | 0.00 | 0.00 | 81 | 1016.0 |
| 20260506122907 | 56 | 145 | 1.7 | 1.7 | 0.00 | 0.00 | 0.00 | 81 | 1016.0 |
| 20260506122407 | 56 | 89 | 0.0 | 1.7 | 0.00 | 0.00 | 0.00 | 81 | 1016.0 |
| 20260506121907 | 56 | 143 | 0.9 | 1.7 | 0.00 | 0.00 | 0.00 | 81 | 1017.0 |
| 20260506121407 | 56 | 128 | 0.9 | 1.7 | 0.00 | 0.00 | 0.00 | 81 | 1016.0 |
| 20260506120907 | 56 | 102 | 0.0 | 1.7 | 0.00 | 0.00 | 0.00 | 81 | 1016.0 |
| 20260506120409 | 56 | 99 | 1.7 | 1.7 | 0.00 | 0.00 | 0.00 | 81 | 1016.0 |
| 20260506115907 | 56 | 144 | 0.0 | 2.6 | 0.00 | 0.00 | 0.00 | 81 | 1016.0 |
| 20260506115407 | 56 | 115 | 0.9 | 1.7 | 0.00 | 0.00 | 0.00 | 81 | 1017.0 |
| 20260506114909 | 56 | 109 | 0.0 | 1.7 | 0.00 | 0.00 | 0.00 | 81 | 1016.0 |
| 20260506114407 | 56 | 192 | 1.7 | 1.7 | 0.00 | 0.00 | 0.00 | 81 | 1016.0 |
| 20260506113908 | 56 | 119 | 0.0 | 1.7 | 0.00 | 0.00 | 0.00 | 81 | 1016.0 |
| 20260506113407 | 56 | 123 | 0.0 | 1.7 | 0.00 | 0.00 | 0.00 | 81 | 1016.0 |
| 20260506112908 | 56 | 121 | 0.9 | 1.7 | 0.00 | 0.00 | 0.00 | 81 | 1016.0 |
| 20260506112408 | 56 | 149 | 1.7 | 1.7 | 0.00 | 0.00 | 0.00 | 81 | 1016.0 |
| 20260506111907 | 56 | 138 | 0.9 | 1.7 | 0.00 | 0.00 | 0.00 | 81 | 1016.0 |
| 20260506111407 | 56 | 112 | 0.0 | 1.7 | 0.00 | 0.00 | 0.00 | 80 | 1016.0 |
| 20260506110907 | 56 | 73 | 0.0 | 1.7 | 0.00 | 0.00 | 0.00 | 80 | 1016.0 |
| 20260506110407 | 56 | 119 | 0.0 | 1.7 | 0.00 | 0.00 | 0.00 | 80 | 1016.0 |
| 20260506105907 | 56 | 123 | 0.0 | 2.6 | 0.00 | 0.00 | 0.00 | 80 | 1016.0 |
| 20260506105407 | 56 | 217 | 0.0 | 1.7 | 0.00 | 0.00 | 0.00 | 80 | 1016.0 |
| 20260506104907 | 56 | 112 | 0.0 | 1.7 | 0.00 | 0.00 | 0.00 | 80 | 1016.0 |
| 20260506104407 | 56 | 76 | 0.9 | 1.7 | 0.00 | 0.00 | 0.00 | 80 | 1016.0 |
| 20260506103908 | 56 | 124 | 0.9 | 1.7 | 0.00 | 0.00 | 0.00 | 80 | 1016.0 |
| 20260506103408 | 56 | 6 | 0.0 | 2.6 | 0.00 | 0.00 | 0.00 | 80 | 1016.0 |
| 20260506102909 | 56 | 123 | 1.7 | 1.7 | 0.00 | 0.00 | 0.00 | 80 | 1016.0 |
| 20260506102407 | 56 | 114 | 0.0 | 0.9 | 0.00 | 0.00 | 0.00 | 80 | 1016.0 |
| 20260506101907 | 56 | 119 | 0.9 | 1.7 | 0.00 | 0.00 | 0.00 | 79 | 1016.0 |
| 20260506101408 | 56 | 35 | 0.0 | 1.7 | 0.00 | 0.00 | 0.00 | 80 | 1016.0 |
| 20260506100907 | 56 | 151 | 0.9 | 1.7 | 0.00 | 0.00 | 0.00 | 79 | 1016.0 |
| 20260506100409 | 56 | 138 | 0.0 | 1.7 | 0.00 | 0.00 | 0.00 | 79 | 1016.0 |
| 20260506095907 | 56 | 111 | 0.0 | 1.7 | 0.00 | 0.00 | 0.00 | 79 | 1016.0 |
| 20260506095407 | 56 | 132 | 0.9 | 1.7 | 0.00 | 0.00 | 0.00 | 79 | 1016.0 |
| 20260506094907 | 56 | 128 | 1.7 | 2.6 | 0.00 | 0.00 | 0.00 | 79 | 1016.0 |
| 20260506094408 | 56 | 224 | 0.0 | 1.7 | 0.00 | 0.00 | 0.00 | 79 | 1016.0 |
| 20260506093907 | 56 | 176 | 1.7 | 1.7 | 0.00 | 0.00 | 0.00 | 79 | 1016.0 |
| 20260506093408 | 56 | 135 | 0.9 | 1.7 | 0.00 | 0.00 | 0.00 | 79 | 1016.0 |
| 20260506092907 | 56 | 175 | 0.9 | 1.7 | 0.00 | 0.00 | 0.00 | 79 | 1016.0 |
| 20260506092408 | 56 | 139 | 0.0 | 1.7 | 0.00 | 0.00 | 0.00 | 79 | 1016.0 |
| 20260506091907 | 56 | 96 | 0.0 | 1.7 | 0.00 | 0.00 | 0.00 | 80 | 1016.0 |
| 20260506091407 | 56 | 256 | 0.0 | 1.7 | 0.00 | 0.00 | 0.00 | 79 | 1016.0 |
| 20260506090423 | 56 | 102 | 0.0 | 1.7 | 0.00 | 0.00 | 0.00 | 80 | 1016.0 |
| 20260506085907 | 56 | 87 | 0.0 | 1.7 | 0.00 | 0.00 | 0.00 | 80 | 1016.0 |
| 20260506085407 | 56 | 112 | 0.0 | 1.7 | 0.00 | 0.00 | 0.00 | 80 | 1016.0 |
| 20260506084908 | 56 | 66 | 0.9 | 1.7 | 0.00 | 0.00 | 0.00 | 80 | 1016.0 |
| 20260506084407 | 56 | 113 | 0.0 | 1.7 | 0.00 | 0.00 | 0.00 | 79 | 1016.0 |
| 20260506083907 | 56 | 129 | 0.9 | 2.6 | 0.00 | 0.00 | 0.00 | 79 | 1016.0 |
| 20260506083408 | 56 | 79 | 1.7 | 1.7 | 0.00 | 0.00 | 0.00 | 80 | 1016.0 |
| 20260506082908 | 56 | 88 | 1.7 | 2.6 | 0.00 | 0.00 | 0.00 | 79 | 1016.0 |
| 20260506082407 | 56 | 107 | 0.9 | 2.6 | 0.00 | 0.00 | 0.00 | 79 | 1016.0 |
| 20260506081907 | 56 | 93 | 1.7 | 2.6 | 0.00 | 0.00 | 0.00 | 79 | 1016.0 |
| 20260506081408 | 56 | 39 | 0.0 | 2.6 | 0.00 | 0.00 | 0.00 | 79 | 1016.0 |
| 20260506080908 | 56 | 113 | 0.9 | 2.6 | 0.00 | 0.00 | 0.00 | 79 | 1016.0 |
| 20260506080408 | 56 | 132 | 1.7 | 2.6 | 0.00 | 0.00 | 0.00 | 79 | 1016.0 |
| 20260506073407 | 57 | 134 | 0.0 | 2.6 | 0.00 | 0.00 | 0.00 | 77 | 1016.0 |
| 20260506072907 | 57 | 149 | 0.9 | 2.6 | 0.00 | 0.00 | 0.00 | 78 | 1016.0 |
| 20260506072407 | 57 | 161 | 0.9 | 2.6 | 0.00 | 0.00 | 0.00 | 78 | 1016.0 |
| 20260506071907 | 57 | 179 | 0.0 | 2.6 | 0.00 | 0.00 | 0.00 | 78 | 1016.0 |
| 20260506071407 | 57 | 184 | 1.7 | 2.6 | 0.00 | 0.00 | 0.00 | 78 | 1016.0 |
| 20260506070907 | 57 | 141 | 1.7 | 2.6 | 0.00 | 0.00 | 0.00 | 78 | 1016.0 |
| 20260506070407 | 57 | 194 | 0.9 | 1.7 | 0.00 | 0.00 | 0.00 | 78 | 1015.0 |
| 20260506062408 | 57 | 86 | 0.0 | 1.7 | 0.00 | 0.00 | 0.13 | 81 | 1015.0 |
| 20260506061907 | 57 | 128 | 1.7 | 2.6 | 0.00 | 0.00 | 0.13 | 81 | 1015.0 |
| 20260506061407 | 57 | 145 | 1.7 | 2.6 | 0.00 | 0.00 | 0.13 | 81 | 1015.0 |
| 20260506060907 | 57 | 134 | 0.9 | 2.6 | 0.00 | 0.00 | 0.13 | 81 | 1015.0 |
| 20260506060408 | 57 | 142 | 1.7 | 2.6 | 0.00 | 0.00 | 0.13 | 81 | 1015.0 |
| 20260506051407 | 57 | 103 | 3.5 | 4.3 | 0.00 | 0.00 | 0.13 | 81 | 1015.0 |
| 20260506050907 | 57 | 114 | 2.6 | 3.5 | 0.00 | 0.00 | 0.13 | 81 | 1015.0 |
| 20260506050407 | 57 | 71 | 1.7 | 4.3 | 0.00 | 0.00 | 0.13 | 81 | 1015.0 |
| 20260506044907 | 56 | 108 | 0.9 | 4.3 | 0.00 | 0.00 | 0.13 | 83 | 1015.0 |
| 20260506044408 | 56 | 130 | 3.5 | 5.2 | 0.00 | 0.00 | 0.13 | 84 | 1015.0 |
| 20260506043907 | 56 | 105 | 1.7 | 3.5 | 0.00 | 0.00 | 0.13 | 85 | 1015.0 |
| 20260506043407 | 56 | 37 | 0.9 | 3.5 | 0.00 | 0.00 | 0.13 | 85 | 1014.0 |
| 20260506042907 | 56 | 45 | 0.9 | 4.3 | 0.00 | 0.00 | 0.13 | 86 | 1014.0 |
| 20260506042408 | 56 | 68 | 2.6 | 3.5 | 0.00 | 0.00 | 0.13 | 86 | 1015.0 |
| 20260506041907 | 56 | 173 | 1.7 | 3.5 | 0.00 | 0.00 | 0.13 | 86 | 1014.0 |
| 20260506041407 | 56 | 135 | 1.7 | 3.5 | 0.00 | 0.00 | 0.13 | 86 | 1014.0 |
| 20260506040907 | 56 | 81 | 2.6 | 3.5 | 0.00 | 0.00 | 0.13 | 86 | 1015.0 |
| 20260506040407 | 56 | 322 | 0.0 | 2.6 | 0.00 | 0.00 | 0.13 | 86 | 1014.0 |
| 20260506035907 | 56 | 55 | 1.7 | 2.6 | 0.00 | 0.00 | 0.13 | 86 | 1014.0 |
| 20260506035407 | 56 | 123 | 1.7 | 1.7 | 0.00 | 0.00 | 0.13 | 85 | 1014.0 |
| 20260506034907 | 56 | 86 | 1.7 | 2.6 | 0.00 | 0.00 | 0.13 | 85 | 1014.0 |
| 20260506034407 | 57 | 118 | 0.0 | 1.7 | 0.00 | 0.00 | 0.13 | 84 | 1014.0 |
| 20260506033907 | 57 | 98 | 0.0 | 3.5 | 0.00 | 0.00 | 0.13 | 85 | 1014.0 |
| 20260506033411 | 57 | 64 | 0.0 | 2.6 | 0.00 | 0.00 | 0.13 | 85 | 1014.0 |
| 20260506032908 | 57 | 89 | 0.0 | 1.7 | 0.00 | 0.00 | 0.13 | 84 | 1014.0 |
| 20260506032408 | 57 | 72 | 0.9 | 2.6 | 0.00 | 0.00 | 0.13 | 83 | 1014.0 |
| 20260506031908 | 57 | 84 | 1.7 | 2.6 | 0.00 | 0.00 | 0.13 | 83 | 1014.0 |
| 20260506031407 | 57 | 106 | 0.9 | 2.6 | 0.00 | 0.00 | 0.13 | 83 | 1013.0 |
| 20260506030907 | 58 | 71 | 2.6 | 3.5 | 0.00 | 0.00 | 0.13 | 82 | 1013.0 |
| 20260506030407 | 58 | 113 | 1.7 | 2.6 | 0.00 | 0.00 | 0.13 | 83 | 1013.0 |
| 20260506025907 | 58 | 132 | 0.9 | 1.7 | 0.00 | 0.00 | 0.13 | 82 | 1013.0 |
| 20260506025407 | 58 | 100 | 0.9 | 2.6 | 0.00 | 0.00 | 0.13 | 82 | 1013.0 |
| 20260506024907 | 58 | 114 | 1.7 | 3.5 | 0.00 | 0.00 | 0.13 | 82 | 1013.0 |
| 20260506024407 | 58 | 142 | 2.6 | 2.6 | 0.00 | 0.00 | 0.13 | 82 | 1013.0 |
| 20260506023908 | 59 | 115 | 1.7 | 2.6 | 0.00 | 0.00 | 0.13 | 82 | 1013.0 |
| 20260506023407 | 59 | 121 | 0.9 | 3.5 | 0.00 | 0.00 | 0.13 | 82 | 1013.0 |
| 20260506022907 | 59 | 123 | 1.7 | 4.3 | 0.00 | 0.00 | 0.13 | 82 | 1013.0 |
| 20260506022408 | 59 | 119 | 1.7 | 4.3 | 0.00 | 0.00 | 0.13 | 82 | 1013.0 |
| 20260506021907 | 59 | 113 | 1.7 | 3.5 | 0.00 | 0.00 | 0.13 | 81 | 1013.0 |
| 20260506021408 | 59 | 101 | 2.6 | 4.3 | 0.00 | 0.00 | 0.13 | 81 | 1013.0 |
| 20260506020907 | 59 | 47 | 0.0 | 4.3 | 0.00 | 0.00 | 0.13 | 81 | 1013.0 |
| 20260506020407 | 59 | 105 | 0.9 | 4.3 | 0.00 | 0.00 | 0.13 | 81 | 1013.0 |
| 20260506015907 | 59 | 93 | 0.9 | 3.5 | 0.00 | 0.00 | 0.13 | 80 | 1013.0 |
| 20260506015407 | 60 | 95 | 2.6 | 4.3 | 0.00 | 0.00 | 0.13 | 80 | 1013.0 |
| 20260506014907 | 60 | 113 | 1.7 | 4.3 | 0.00 | 0.00 | 0.13 | 81 | 1013.0 |
| 20260506014407 | 60 | 55 | 0.9 | 3.5 | 0.00 | 0.00 | 0.13 | 80 | 1013.0 |
| 20260506013907 | 60 | 92 | 3.5 | 3.5 | 0.00 | 0.00 | 0.13 | 79 | 1012.0 |
| 20260506013407 | 60 | 121 | 2.6 | 4.3 | 0.00 | 0.00 | 0.13 | 80 | 1013.0 |
| 20260506012907 | 60 | 83 | 1.7 | 4.3 | 0.00 | 0.00 | 0.13 | 79 | 1013.0 |
| 20260506012407 | 60 | 93 | 2.6 | 4.3 | 0.00 | 0.00 | 0.13 | 81 | 1013.0 |
| 20260506011907 | 60 | 106 | 6.1 | 7.0 | 0.00 | 0.00 | 0.13 | 80 | 1013.0 |
| 20260506011408 | 60 | 101 | 1.7 | 4.3 | 0.00 | 0.00 | 0.13 | 80 | 1013.0 |
| 20260506010907 | 60 | 117 | 2.6 | 4.3 | 0.00 | 0.00 | 0.13 | 80 | 1013.0 |
| 20260506010407 | 60 | 115 | 2.6 | 5.2 | 0.00 | 0.00 | 0.13 | 79 | 1013.0 |
| 20260506005908 | 60 | 107 | 3.5 | 4.3 | 0.00 | 0.00 | 0.13 | 79 | 1013.0 |
| 20260506005407 | 60 | 103 | 3.5 | 4.3 | 0.00 | 0.00 | 0.13 | 80 | 1013.0 |
| 20260506004907 | 60 | 100 | 5.2 | 6.1 | 0.00 | 0.00 | 0.13 | 80 | 1013.0 |
| 20260506004407 | 60 | 172 | 0.0 | 5.2 | 0.00 | 0.00 | 0.13 | 79 | 1013.0 |
| 20260506003907 | 61 | 99 | 1.7 | 3.5 | 0.00 | 0.00 | 0.13 | 80 | 1013.0 |
| 20260506003408 | 61 | 78 | 2.6 | 4.3 | 0.00 | 0.00 | 0.13 | 79 | 1013.0 |
| 20260506002908 | 61 | 84 | 1.7 | 4.3 | 0.00 | 0.00 | 0.13 | 79 | 1013.0 |
| 20260506002408 | 61 | 119 | 2.6 | 3.5 | 0.00 | 0.00 | 0.13 | 78 | 1013.0 |
| 20260506001907 | 62 | 85 | 3.5 | 4.3 | 0.00 | 0.00 | 0.13 | 79 | 1012.0 |
| 20260506001407 | 61 | 118 | 2.6 | 4.3 | 0.00 | 0.00 | 0.13 | 77 | 1012.0 |
| 20260506000907 | 61 | 97 | 1.7 | 5.2 | 0.00 | 0.00 | 0.13 | 78 | 1013.0 |
| 20260506000408 | 61 | 98 | 4.3 | 5.2 | 0.00 | 0.00 | 0.13 | 78 | 1012.0 |
| 20260505235907 | 61 | 74 | 1.7 | 4.3 | 0.00 | 0.00 | 0.13 | 79 | 1013.0 |
| 20260505235407 | 61 | 86 | 4.3 | 5.2 | 0.00 | 0.00 | 0.13 | 79 | 1012.0 |
| 20260505234907 | 61 | 79 | 1.7 | 6.1 | 0.00 | 0.00 | 0.13 | 79 | 1013.0 |
| 20260505234407 | 60 | 110 | 2.6 | 4.3 | 0.00 | 0.00 | 0.13 | 80 | 1012.0 |
| 20260505233907 | 60 | 97 | 2.6 | 5.2 | 0.00 | 0.00 | 0.13 | 80 | 1012.0 |
| 20260505233407 | 60 | 116 | 2.6 | 5.2 | 0.00 | 0.00 | 0.13 | 80 | 1013.0 |
| 20260505232908 | 60 | 77 | 2.6 | 6.1 | 0.00 | 0.00 | 0.13 | 80 | 1013.0 |
| 20260505232407 | 60 | 130 | 0.9 | 5.2 | 0.00 | 0.00 | 0.13 | 80 | 1012.0 |
| 20260505231908 | 61 | 99 | 2.6 | 5.2 | 0.00 | 0.00 | 0.13 | 81 | 1013.0 |
| 20260505231407 | 61 | 73 | 2.6 | 4.3 | 0.00 | 0.00 | 0.13 | 81 | 1013.0 |
| 20260505230907 | 61 | 117 | 2.6 | 4.3 | 0.00 | 0.00 | 0.13 | 80 | 1013.0 |
| 20260505230407 | 61 | 106 | 4.3 | 4.3 | 0.00 | 0.00 | 0.13 | 80 | 1013.0 |
| 20260505225910 | 61 | 80 | 1.7 | 4.3 | 0.00 | 0.00 | 0.13 | 79 | 1013.0 |
| 20260505225407 | 61 | 149 | 0.0 | 5.2 | 0.00 | 0.00 | 0.13 | 80 | 1012.0 |
| 20260505224907 | 62 | 116 | 4.3 | 6.1 | 0.00 | 0.00 | 0.13 | 79 | 1012.0 |
| 20260505224407 | 62 | 81 | 2.6 | 5.2 | 0.00 | 0.00 | 0.13 | 78 | 1013.0 |
| 20260505223907 | 62 | 94 | 1.7 | 6.1 | 0.00 | 0.00 | 0.13 | 79 | 1013.0 |
| 20260505223407 | 62 | 84 | 2.6 | 6.1 | 0.00 | 0.00 | 0.13 | 79 | 1013.0 |
| 20260505222907 | 62 | 102 | 3.5 | 6.1 | 0.00 | 0.00 | 0.13 | 78 | 1012.0 |
| 20260505222407 | 63 | 102 | 2.6 | 5.2 | 0.00 | 0.00 | 0.13 | 75 | 1013.0 |
| 20260505221907 | 63 | 66 | 2.6 | 5.2 | 0.00 | 0.00 | 0.13 | 75 | 1013.0 |
| 20260505221407 | 63 | 94 | 3.5 | 6.1 | 0.00 | 0.00 | 0.13 | 75 | 1013.0 |
| 20260505220907 | 63 | 95 | 3.5 | 4.3 | 0.00 | 0.00 | 0.13 | 75 | 1013.0 |
| 20260505220407 | 63 | 139 | 1.7 | 5.2 | 0.00 | 0.00 | 0.13 | 74 | 1013.0 |
| 20260505215907 | 63 | 110 | 3.5 | 6.1 | 0.00 | 0.00 | 0.13 | 74 | 1013.0 |
| 20260505215407 | 63 | 87 | 3.5 | 4.3 | 0.00 | 0.00 | 0.13 | 75 | 1013.0 |
| 20260505214908 | 63 | 125 | 3.5 | 5.2 | 0.00 | 0.00 | 0.13 | 74 | 1013.0 |
| 20260505214407 | 63 | 103 | 2.6 | 5.2 | 0.00 | 0.00 | 0.13 | 75 | 1013.0 |
| 20260505213907 | 63 | 137 | 1.7 | 5.2 | 0.00 | 0.00 | 0.13 | 75 | 1013.0 |
| 20260505213407 | 63 | 99 | 2.6 | 4.3 | 0.00 | 0.00 | 0.13 | 75 | 1013.0 |
| 20260505212907 | 63 | 103 | 1.7 | 4.3 | 0.00 | 0.00 | 0.13 | 76 | 1013.0 |
| 20260505212407 | 63 | 105 | 2.6 | 5.2 | 0.00 | 0.00 | 0.13 | 74 | 1013.0 |
| 20260505211907 | 62 | 75 | 2.6 | 3.5 | 0.00 | 0.00 | 0.13 | 76 | 1013.0 |
| 20260505211407 | 62 | 96 | 3.5 | 5.2 | 0.00 | 0.00 | 0.13 | 76 | 1013.0 |
| 20260505210908 | 62 | 102 | 2.6 | 4.3 | 0.00 | 0.00 | 0.13 | 75 | 1013.0 |
| 20260505210408 | 61 | 81 | 1.7 | 4.3 | 0.00 | 0.00 | 0.13 | 77 | 1013.0 |
| 20260505205907 | 61 | 71 | 0.0 | 4.3 | 0.00 | 0.00 | 0.13 | 77 | 1013.0 |
| 20260505205407 | 61 | 98 | 2.6 | 3.5 | 0.00 | 0.00 | 0.13 | 78 | 1013.0 |
| 20260505204907 | 61 | 104 | 1.7 | 4.3 | 0.00 | 0.00 | 0.13 | 77 | 1013.0 |
| 20260505204408 | 61 | 73 | 1.7 | 2.6 | 0.00 | 0.00 | 0.13 | 78 | 1013.0 |
| 20260505203908 | 61 | 84 | 2.6 | 4.3 | 0.00 | 0.00 | 0.13 | 78 | 1013.0 |
| 20260505203407 | 61 | 95 | 2.6 | 4.3 | 0.00 | 0.00 | 0.13 | 77 | 1013.0 |
| 20260505202907 | 61 | 98 | 2.6 | 4.3 | 0.00 | 0.00 | 0.13 | 78 | 1013.0 |
| 20260505202407 | 61 | 113 | 0.0 | 3.5 | 0.00 | 0.00 | 0.13 | 77 | 1013.0 |
| 20260505201908 | 62 | 78 | 1.7 | 4.3 | 0.00 | 0.00 | 0.13 | 76 | 1013.0 |